TimeAKDT,TemperatureF,Dew PointF,Humidity,Sea Level PressureIn,VisibilityMPH,Wind Direction,Wind SpeedMPH,Gust SpeedMPH,PrecipitationIn,Events,Conditions,WindDirDegrees,DateUTC
12:53 AM,60.1,46.9,62,29.85,10.0,SSW,4.6,-,N/A,,Scattered Clouds,200,2013-06-21 08:53:00
1:53 AM,55.9,48.0,75,29.85,10.0,South,4.6,-,N/A,,Clear,180,2013-06-21 09:53:00
2:53 AM,55.9,48.9,77,29.85,10.0,SSW,3.5,-,N/A,,Mostly Cloudy,210,2013-06-21 10:53:00
3:53 AM,55.0,48.9,80,29.86,10.0,SSW,3.5,-,N/A,,Mostly Cloudy,210,2013-06-21 11:53:00
4:53 AM,54.0,48.9,83,29.86,10.0,ENE,5.8,-,N/A,,Scattered Clouds,60,2013-06-21 12:53:00
5:53 AM,55.9,46.9,72,29.85,10.0,East,3.5,-,N/A,,Mostly Cloudy,80,2013-06-21 13:53:00
6:53 AM,55.9,48.9,77,29.85,10.0,Calm,Calm,-,N/A,,Mostly Cloudy,0,2013-06-21 14:53:00
7:53 AM,57.0,53.1,87,29.84,10.0,Calm,Calm,-,N/A,,Scattered Clouds,0,2013-06-21 15:53:00
8:53 AM,57.0,53.1,87,29.85,10.0,SW,4.6,-,N/A,,Scattered Clouds,230,2013-06-21 16:53:00
9:53 AM,57.0,53.1,87,29.85,9.0,WSW,6.9,-,N/A,,Clear,240,2013-06-21 17:53:00
10:53 AM,57.0,52.0,83,29.84,10.0,West,5.8,-,N/A,,Scattered Clouds,270,2013-06-21 18:53:00
11:53 AM,55.9,51.1,84,29.84,10.0,WNW,5.8,-,N/A,,Scattered Clouds,290,2013-06-21 19:53:00
12:53 PM,57.0,52.0,83,29.84,10.0,West,5.8,-,N/A,,Scattered Clouds,280,2013-06-21 20:53:00
1:53 PM,57.9,52.0,81,29.83,10.0,West,5.8,-,N/A,,Mostly Cloudy,260,2013-06-21 21:53:00
2:53 PM,57.9,53.1,84,29.83,10.0,West,3.5,-,N/A,,Scattered Clouds,280,2013-06-21 22:53:00
3:53 PM,59.0,53.1,81,29.82,9.0,WNW,3.5,-,N/A,,Mostly Cloudy,290,2013-06-21 23:53:00
4:53 PM,63.0,51.1,65,29.80,10.0,NNW,3.5,-,N/A,,Mostly Cloudy,340,2013-06-22 00:53:00
5:53 PM,62.1,52.0,70,29.78,10.0,NW,5.8,-,N/A,,Clear,320,2013-06-22 01:53:00
6:53 PM,64.9,50.0,58,29.78,10.0,North,3.5,-,N/A,,Clear,350,2013-06-22 02:53:00
7:53 PM,64.9,53.1,65,29.78,10.0,NW,3.5,-,N/A,,Clear,320,2013-06-22 03:53:00
8:53 PM,66.0,46.0,48,29.77,10.0,SW,6.9,-,N/A,,Partly Cloudy,220,2013-06-22 04:53:00
9:53 PM,62.1,48.0,60,29.77,10.0,South,16.1,-,N/A,,Scattered Clouds,190,2013-06-22 05:53:00
10:53 PM,59.0,48.0,67,29.77,10.0,South,13.8,-,N/A,,Scattered Clouds,190,2013-06-22 06:53:00
11:53 PM,57.0,46.9,69,29.77,10.0,South,13.8,-,N/A,,Mostly Cloudy,190,2013-06-22 07:53:00